Weather History for Santa Ana, CA

Change the Weather History Date:

Tuesday, February 4, 2014

  Actual Average Record
Temperature  
Mean Temperature 58 °F 57 °F  
Max Temperature 64 °F 66 °F 86 °F (2001)
Min Temperature 51 °F 48 °F 42 °F (2007)
Degree Days  
Heating Degree Days 7 8  
Month to date heating degree days 35 32  
Since 1 July heating degree days 417 724  
Cooling Degree Days 0 0  
Month to date cooling degree days 0 0  
Year to date cooling degree days 27 5  
Growing Degree Days 8 (Base 50)    
Moisture  
Dew Point 44 °F    
Average Humidity 60    
Maximum Humidity 71    
Minimum Humidity 48    
Precipitation  
Precipitation 0.00 in 0.06 in 1.73 in (1958)
Month to date precipitation 0.07 0.22  
Year to date precipitation 0.09 3.13  
Since 1 July precipitation 1.14 7.50  
Snow  
Snow 0.00 in - - ()
Month to date snowfall 0.0  
Year to date snowfall 0.0  
Since 1 July snowfall 0.0  
Snow Depth 0.00 in    
Sea Level Pressure  
Sea Level Pressure 30.04 in    
Wind  
Wind Speed 6 mph (SE)    
Max Wind Speed 15 mph    
Max Gust Speed 21 mph    
Visibility 10 miles    
Events      
T = Trace of Precipitation, MM = Missing Value Source: NWS Daily Summary

Daily Weather History Graph

Daily Weather History Graph

Search for Another Location

Airport:

Trip Planner

Search our weather history database for the weather conditions in past years. The results will help you decide how hot, cold, wet, or windy it might be!

Date:

Astronomy

Feb. 04, 2014 Rise Set
Actual Time 6:45 AM PST 5:25 PM PST
Civil Twilight 6:19 AM PST 5:51 PM PST
Nautical Twilight 5:49 AM PST 6:21 PM PST
Astronomical Twilight 5:20 AM PST 6:50 PM PST
Moon 9:44 AM PST (2/4) 11:05 PM PST (2/4)
Length of Visible Light 11h 32m
Length of Day
10h 40m
Waxing Crescent, 30% of the Moon is Illuminated
Feb 4
Waxing Crescent
Feb 6
First Quarter
Feb 14
Full
Feb 22
Last Quarter
Mar 1
New

Hourly Weather History & Observations

Time (PST) Temp. Dew Point Humidity Pressure Visibility Wind Dir Wind Speed Gust Speed Precip Events Conditions
12:53 AM 53.1 °F 43.0 °F 69% 29.99 in 10.0 mi ESE 5.8 mph - N/A   Clear
1:53 AM 52.0 °F 43.0 °F 71% 30.00 in 10.0 mi ESE 4.6 mph - N/A   Clear
2:53 AM 52.0 °F 42.1 °F 69% 30.00 in 10.0 mi East 5.8 mph - N/A   Clear
3:53 AM 51.1 °F 42.1 °F 71% 30.00 in 10.0 mi East 4.6 mph - N/A   Clear
4:53 AM 52.0 °F 41.0 °F 66% 30.01 in 10.0 mi ESE 6.9 mph - N/A   Clear
5:53 AM 51.1 °F 41.0 °F 68% 30.01 in 10.0 mi ESE 3.5 mph - N/A   Scattered Clouds
6:53 AM 52.0 °F 42.1 °F 69% 30.03 in 10.0 mi ESE 4.6 mph - N/A   Mostly Cloudy
7:53 AM 54.0 °F 43.0 °F 66% 30.04 in 10.0 mi ESE 5.8 mph - N/A   Mostly Cloudy
8:53 AM 57.9 °F 44.1 °F 60% 30.06 in 10.0 mi East 4.6 mph - N/A   Mostly Cloudy
9:53 AM 61.0 °F 45.0 °F 56% 30.08 in 9.0 mi Variable 3.5 mph - N/A   Mostly Cloudy
10:53 AM 60.1 °F 46.0 °F 60% 30.08 in 10.0 mi SW 5.8 mph - N/A   Mostly Cloudy
11:53 AM 63.0 °F 44.1 °F 50% 30.06 in 10.0 mi South 10.4 mph - N/A   Mostly Cloudy
12:53 PM 64.0 °F 44.1 °F 48% 30.03 in 10.0 mi SSW 11.5 mph - N/A   Mostly Cloudy
1:53 PM 63.0 °F 43.0 °F 48% 30.02 in 10.0 mi South 10.4 mph - N/A   Scattered Clouds
2:53 PM 60.1 °F 45.0 °F 57% 30.00 in 10.0 mi SSW 8.1 mph - N/A   Mostly Cloudy
3:53 PM 60.1 °F 44.1 °F 55% 30.00 in 10.0 mi Variable 6.9 mph - N/A   Scattered Clouds
4:53 PM 59.0 °F 44.1 °F 58% 30.01 in 10.0 mi SSW 6.9 mph - N/A   Scattered Clouds
5:53 PM 57.9 °F 45.0 °F 62% 30.02 in 10.0 mi SSE 5.8 mph - N/A   Scattered Clouds
6:53 PM 57.0 °F 45.0 °F 64% 30.05 in 10.0 mi SSE 5.8 mph - N/A   Scattered Clouds
7:53 PM 55.9 °F 44.1 °F 64% 30.06 in 10.0 mi SE 5.8 mph - N/A   Scattered Clouds
8:53 PM 55.9 °F 44.1 °F 64% 30.06 in 10.0 mi SSE 4.6 mph - N/A   Scattered Clouds
9:53 PM 55.0 °F 44.1 °F 67% 30.08 in 10.0 mi SE 5.8 mph - N/A   Scattered Clouds
10:53 PM 55.0 °F 44.1 °F 67% 30.09 in 10.0 mi SE 5.8 mph - N/A   Scattered Clouds
11:53 PM 54.0 °F 43.0 °F 66% 30.09 in 10.0 mi SE 5.8 mph - N/A   Partly Cloudy